Location: Mason
(37.5237°N, 89.2543°W)
Time: 07:19:01
(UTC+00:00)

Meteor 2-15 Rocket - Visible Passes

Search period start: 26 June 2022 00:00
Search period end: 06 July 2022 00:00
Orbit: 940 x 955 km, 82.5° (Epoch: 25 June)

Date Brightness Start Highest point End Pass type
(mag) Time Alt. Az. Time Alt. Az. Time Alt. Az.
26 Jun 7.3 01:55:34 10° WSW 01:59:27 17° WNW 02:03:22 10° NNW visible
27 Jun 7.9 02:16:17 10° WNW 02:16:53 10° WNW 02:17:29 10° WNW visible
28 Jun 7.4 09:53:30 10° NNE 09:57:06 16° ENE 10:00:40 10° ESE visible
02 Jul 7.4 09:17:24 10° NE 09:20:13 13° ENE 09:23:00 10° E visible
03 Jul 7.1 09:32:59 10° NNE 09:37:35 22° ENE 09:42:09 10° ESE visible
04 Jul 6.3 09:49:18 10° NNE 09:54:51 34° ENE 10:00:19 10° SE visible
05 Jul 5.4 10:05:58 10° N 10:12:00 54° E 10:17:58 10° SSE visible
